Location: ?ejeti?ky
(50.4060°N, 14.9016°E)
Time: 21:23:31
(UTC+00:00)

STARLINK-1364 - Pass Details

Date: 07 October 2020
Orbit: 548 x 551 km, 53.0° (Epoch: 23 October)

Event Time Altitude Azimuth Distance (km) Brightness Sun altitude
Exits shadow 02:54:40 72° 316° (NW) 582 3.5 -22.2°
Maximum altitude 02:55:02 82° 19° (NNE) 562 3.6 -22.1°
Drops below altitude 10° 02:59:11 10° 106° (ESE) 1,825 7.0 -21.5°
Sets 03:01:25 0° 107° (ESE) 2,718 8.0 -21.1°
